Location: Allen Fire Department Station 4
(33.1073°N, 96.6988°W)
Time: 11:34:58
(UTC+00:00)

BREEZE-M DEB (TANK) - Visible Passes

Search period start: 28 June 2022 00:00
Search period end: 08 July 2022 00:00
Orbit: 335 x 11980 km, 49.7° (Epoch: 27 June)

Date Brightness Start Highest point End Pass type
(mag) Time Alt. Az. Time Alt. Az. Time Alt. Az.
28 Jun 6.1 03:35:50 10° WNW 03:43:25 45° N 04:15:03 10° ENE visible
28 Jun 7.5 07:39:55 10° NW 08:05:49 77° NE 09:45:06 10° SE visible
29 Jun 5.5 02:50:56 10° W 02:57:02 48° NNW 03:20:40 10° ENE visible
29 Jun 7.4 06:54:44 10° NW 07:16:25 68° NE 08:51:37 10° SE visible
30 Jun 4.9 02:06:09 10° WSW 02:11:08 56° NNW 02:29:22 10° NE visible
30 Jun 7.3 06:09:37 10° NW 06:27:32 60° NNE 07:54:39 10° ESE visible
30 Jun 7.8 10:15:39 10° NW 10:55:43 58° WSW 12:26:18 10° S visible
01 Jul 7.0 05:24:33 10° NW 05:39:10 53° NNE 06:53:37 10° ESE visible
01 Jul 7.7 09:29:32 10° NW 10:06:22 68° WSW 11:41:14 10° S visible
02 Jul 6.8 04:39:30 10° WNW 04:51:19 48° NNE 05:49:37 10° E visible
02 Jul 7.7 08:43:48 10° NW 09:16:42 79° SW 10:54:27 10° SSE visible
03 Jul 6.5 03:54:27 10° WNW 04:03:56 44° N 04:46:27 10° E visible
03 Jul 7.6 07:58:19 10° NW 08:27:01 89° SW 10:05:54 10° SSE visible
04 Jul 6.2 03:09:25 10° WNW 03:17:00 42° N 03:47:24 10° ENE visible
04 Jul 7.5 07:13:00 10° NW 07:37:37 81° NE 09:15:15 10° SE visible
05 Jul 5.7 02:24:25 10° W 02:30:29 43° N 02:52:44 10° ENE visible
05 Jul 7.3 06:27:49 10° NW 06:48:37 71° NE 08:21:59 10° SE visible
05 Jul 7.9 10:35:21 10° WNW 11:14:34 43° WSW 12:36:57 10° SSW visible
06 Jul 5.1 01:39:28 10° W 01:44:23 47° NNW 02:01:19 10° NE visible
06 Jul 7.1 05:42:42 10° NW 06:00:04 62° NNE 07:25:24 10° ESE visible
06 Jul 7.8 09:48:28 10° NW 10:25:55 53° WSW 11:54:30 10° S visible
07 Jul 6.9 04:57:38 10° NW 05:11:57 54° NNE 06:24:57 10° ESE visible
07 Jul 7.7 09:02:13 10° NW 09:36:43 64° WSW 11:09:51 10° S visible
